Volver al catálogo

STARLINK-35443

ActivoComunicacionesVLEO
NORAD 66339·PAYLOAD·🇺🇸 United States

Lanzado Nov 6, 2025 desde Cape Canaveral Space Force Station

Loading…

Próximos Pases (próximas 24 horas)

TLE

ActualizadoSource: CelesTrak SupGP

Época: Sep 15, 2026, 02:36 UTC

1 66339C 25253W   26258.10881944 -.00066494  00000+0 -24088-2 0  2584
2 66339  43.0010 222.7532 0001363 264.9602 101.7318 15.27606417    13

Sigue STARLINK-35443 en tiempo real con AllMySat

Download on the App Store